Notices

What's New in latest Release from April 7th, 2021:

- Updated Glossary, including Speed of Maximum Gust, and Total Hourly Precipitation

- Updated national and regional climate services offices contacts and prices information

- Addition of station inventory lists for 1981-2010, 1971-2000, and 1961-1990 Normals.

If you haven't already, please take our survey and provide feedback about our website: https://eccc.sondage-survey.ca/f/LanguageSelection.aspx?s=442ca660-fcf1-47c0-95a9-59707d6fd709

Hourly Data Report for March 19, 2017

TORONTO CITY
ONTARIO

43°40'00.000" N
79°24'00.000" W
112.50 m
6158355
71508
XTO

Download Data

Hourly Data (March 2017)
Hourly Data Report for March 19, 2017
TIME
LST
Temp Definition
°C
Dew Point Definition
°C
Rel Hum Definition
%
Precip. Amount Definition
mm

Wind Dir Definition
10's deg

Wind Spd Definition
km/h
Visibility Definition
km
Stn Press Definition
kPa
Hmdx Definition


Wind Chill Definition


Weather Definition


00:00 0.9 -2.4 78 0.0 LegendMM LegendMM   100.85     LegendNANA
01:00 0.6 -5.0 66 0.0 LegendMM LegendMM   100.86     LegendNANA
02:00 0.5 -5.1 66 0.0 LegendMM LegendMM   100.89     LegendNANA
03:00 0.4 -5.0 67 0.0 LegendMM LegendMM   100.90     LegendNANA
04:00 1.0 -4.5 67 0.0 LegendMM LegendMM   100.98     LegendNANA
05:00 1.0 -4.6 66 0.0 LegendMM LegendMM   101.06     LegendNANA
06:00 1.0 -5.1 64 0.0 LegendMM LegendMM   101.17     LegendNANA
07:00 1.0 -5.7 61 0.0 LegendMM LegendMM   101.24     LegendNANA
08:00 1.4 -5.1 62 0.0 LegendMM LegendMM   101.29     LegendNANA
09:00 1.9 -5.5 58 0.0 LegendMM LegendMM   101.35     LegendNANA
10:00 3.0 -4.6 57 0.0 LegendMM LegendMM   101.34     LegendNANA
11:00 4.4 -2.6 60 0.0 LegendMM LegendMM   101.35     LegendNANA
12:00 5.2 -3.1 55 0.0 LegendMM LegendMM   101.33     LegendNANA
13:00 5.2 -2.6 57 0.0 LegendMM LegendMM   101.30     LegendNANA
14:00 5.8 -1.1 61 0.0 LegendMM LegendMM   101.25     LegendNANA
15:00 5.0 -1.4 63 0.0 LegendMM LegendMM   101.20     LegendNANA
16:00 4.1 -1.8 66 0.0 LegendMM LegendMM   101.16     LegendNANA
17:00 3.7 -1.5 69 0.0 LegendMM LegendMM   101.12     LegendNANA
18:00 3.6 -1.6 69 0.0 LegendMM LegendMM   101.12     LegendNANA
19:00 3.0 -0.9 76 0.0 LegendMM LegendMM   101.12     LegendNANA
20:00 3.4 -0.7 75 0.0 LegendMM LegendMM   101.10     LegendNANA
21:00 3.4 0.0 78 0.0 LegendMM LegendMM   101.11     LegendNANA
22:00 2.8 0.4 85 0.0 LegendMM LegendMM   101.11     LegendNANA
23:00 2.2 0.2 87 0.0 LegendMM LegendMM   101.04     LegendNANA

Notes on Data Quality.

Legend

  • E = Estimated
  • M = Missing
  • NA = Not Available*
  • [empty] = Indicates an unobserved value
Date modified: